Location: Acheri
(46.9632°N, 8.4727°E)
Time: 21:27:06
(UTC+00:00)

Daily predictions for brighter satellites

Satellite Brightness Start Highest point End
(mag) Time Altitude Azimuth Time Altitude Azimuth Time Altitude Azimuth
Cosmos 2142 Rocket 4.5 16:38:15 10° N 16:44:26 75° E 16:50:33 10° SSE
H-2A R/B 3.4 16:41:19 10° E 16:44:36 18° ENE 16:47:57 10° NNE
Lacrosse 5 1.9 16:40:01 10° NW 16:45:03 64° NNE 16:50:04 10° ESE
BREEZE-M DEB (TANK) 2.2 16:44:45 10° W 16:47:24 47° N 16:49:32 10° ENE
Cosmos 2058 Rocket 3.6 16:43:24 10° N 16:47:40 40° ENE 16:51:55 10° SE
CZ-4C R/B 2.8 16:45:18 10° NNE 16:48:28 85° WNW 16:51:39 10° SSW
SMAP 3.2 16:49:08 10° SSE 16:53:47 84° WSW 16:58:28 10° NNW
Cosmos 1726 Rocket 3.5 16:50:52 10° N 16:55:16 74° E 16:59:39 10° SSE
ADEOS Rocket 4.3 16:51:35 10° N 16:57:00 37° WNW 17:02:04 10° SW
Cosmos 1818 4.0 16:51:58 10° S 16:57:06 46° ESE 17:02:19 10° NE
Meteor 2-5 Rocket 4.0 16:51:36 10° SSW 16:57:08 73° WNW 17:02:41 10° N
ISS -3.3 16:55:21 10° SW 16:58:39 53° SSE 17:01:49 11° ENE
CZ-2C R/B 3.7 16:55:09 10° SE 17:00:06 39° ENE 17:05:19 10° N
H-2A R/B 3.0 16:57:06 10° S 17:01:08 63° W 17:05:20 10° NNW
RESURS DK-1 4.4 16:57:48 10° WSW 17:01:09 23° NW 17:04:31 10° N
Cosmos 1833 Rocket 4.1 17:00:35 10° N 17:04:23 18° NE 17:07:58 11° E
BREEZE-M DEB (TANK) 4.4 17:03:07 10° WNW 17:06:38 29° SW 17:08:44 10° SSE
CZ-4C R/B 3.8 17:02:33 10° W 17:07:08 27° NNW 17:12:30 10° NNE
Okean 1-7 Rocket 3.9 17:03:20 10° SSE 17:07:41 48° E 17:12:06 10° NNE
Cosmos 1777 Rocket 4.1 17:04:22 10° SSW 17:09:37 85° WNW 17:14:58 10° NNE
Cosmos 1538 Rocket 4.0 17:04:37 10° NNW 17:09:49 88° WSW 17:15:00 10° SSE
Cosmos 1626 4.3 17:07:08 10° SW 17:10:20 27° WNW 17:13:33 10° NNW
Cosmos 1844 4.1 17:06:48 10° S 17:12:07 44° ESE 17:17:32 10° NE
Cosmos 2082 Rocket 3.9 17:09:45 10° N 17:12:39 14° NE 17:14:41 12° ENE
Helios 1A Rocket 4.2 17:11:34 10° ESE 17:14:42 21° ENE 17:17:51 10° NNE
NOSS 3-1 (C) 4.3 17:09:47 10° NW 17:16:46 49° NE 17:24:53 10° ESE
CREW DRAGON DEMO-1 DEB 2.6 17:15:30 10° WNW 17:18:25 83° NNE 17:20:53 13° ESE
Meteor 1-24 Rocket 4.2 17:13:46 10° SSW 17:19:00 60° WNW 17:24:16 10° N
COSMO-SKYMED 1 2.8 17:15:38 10° NNE 17:19:52 49° E 17:24:04 10° S
Meteor 2-10 Rocket 3.6 17:15:03 10° N 17:20:35 88° E 17:25:50 10° S
Cosmos 1844 Rocket 2.7 17:18:46 10° SSW 17:24:23 67° ESE 17:30:00 10° NNE
NOSS 2-1 (C) 4.0 17:31:18 10° S 17:34:09 25° ESE 17:34:56 23° E
USA 229 DEB 4.2 17:28:29 10° NW 17:35:24 46° NE 17:41:51 13° ESE
CZ-4B R/B 1.2 17:32:03 10° NNE 17:35:26 84° ESE 17:38:42 10° SSW
USA 229 4.2 17:28:36 10° NW 17:35:30 46° NE 17:41:51 14° ESE
Cosmos 990 Rocket 4.4 17:32:28 10° S 17:37:19 41° ESE 17:41:19 15° NE
Cosmos 1939 Rocket 3.4 17:35:11 10° S 17:39:15 63° W 17:43:19 10° NNW
NOSS 2-1 (D) 3.8 17:37:03 10° S 17:40:01 29° ESE 17:40:41 27° E
Cosmos 2278 Rocket 3.5 17:37:55 10° SE 17:41:32 18° E 17:41:32 18° E
Aureole 3 2.6 17:38:28 10° N 17:41:50 79° E 17:44:49 10° SSE
OE (NEXTSAT) 4.3 17:40:02 10° W 17:43:28 78° S 17:44:59 31° E
SKYMED 3 4.5 17:39:32 10° NNE 17:43:55 87° ESE 17:48:16 10° SSW
Cosmos-2242 4.2 17:40:33 10° NNE 17:43:16 23° NE 17:43:16 23° NE
Okean O Rocket 3.4 17:40:05 10° SSW 17:44:08 35° W 17:48:13 10° NNW
Cosmos 1602 Rocket 3.8 17:41:36 10° SSE 17:45:44 45° E 17:49:56 10° NNE
H-2A R/B 3.6 17:42:27 10° N 17:46:34 37° WNW 17:50:33 10° SW
Okean-O 2.6 17:42:14 10° SSE 17:46:34 57° ENE 17:50:56 10° N
TELKOM 3 3.3 17:45:32 10° W 17:47:48 50° NNW 17:48:01 48° N
CSL-04 Rocket 4.1 17:43:06 10° SE 17:48:07 40° ENE 17:53:13 10° N
ATLAS 5 CENTAUR R/B 3.6 17:45:13 10° WNW 17:48:29 21° NNW 17:52:06 10° NNE
Feng Yun 1-1 Rocket 4.5 17:44:14 10° S 17:49:39 72° WSW 17:55:15 10° NNW
YAOGAN 1 2.5 17:45:58 10° SSE 17:50:12 59° ENE 17:54:28 10° N
Cosmos 44 3.5 17:45:38 10° SSW 17:50:16 53° ESE 17:53:00 25° NE
NOSS 3-1 (A) 4.2 17:43:55 10° NW 17:50:57 50° NE 17:57:05 18° ESE
X-37B 1.0 17:48:56 10° WSW 17:52:03 53° S 17:52:52 39° ESE
Cosmos 158 Rocket 4.2 17:47:34 10° NNW 17:52:56 78° WSW 17:58:19 10° SSE
Aureole 2 Rocket 3.8 17:50:44 10° SW 17:53:31 32° WNW 17:56:15 11° N
MOS 1 Rocket 3.0 17:52:13 10° NNE 17:56:33 90° W 18:00:50 10° SSW
ATLAS 2AS CENTAUR R/B 4.4 17:50:27 10° WNW 17:57:00 27° NNW 18:02:51 12° NE
CZ-4 R/B 1.2 17:53:42 10° SSE 17:57:47 82° ENE 18:01:49 10° NNW
CZ-2D R/B 4.0 17:54:57 10° S 17:58:44 55° W 18:02:32 10° NNW
Meteor 1-21 Rocket 4.1 17:54:37 10° S 18:00:09 90° SE 18:05:46 10° NNE
SJ 16-02 1.8 17:56:36 10° SSW 18:00:57 60° WNW 18:05:19 10° NNE
SL-08 RB Rocket 4.2 18:01:08 35° ENE 18:01:14 35° ENE 18:05:19 10° N
COSMOS 2455 3.7 17:55:28 10° WSW 18:01:17 48° NW 18:06:58 11° NNE
Cosmos 1627 Rocket 4.5 17:56:52 10° S 18:02:55 60° E 18:09:05 10° NNE
Cosmos 1812 Rocket 3.4 17:59:24 10° N 18:03:47 70° E 18:08:08 10° SSE
CZ-3B R/B 2.0 18:01:14 10° NW 18:03:55 77° NNE 18:08:40 19° ESE
PSLV R/B 3.8 18:00:28 13° NNE 18:04:16 74° ESE 18:08:29 10° S
SKYMED 2 4.3 18:03:40 10° N 18:07:55 54° WNW 18:12:09 10° SSW
Cosmos 1455 3.5 18:07:49 10° NNW 18:11:25 41° W 18:15:02 10° SSW
Cosmos 1340 2.5 18:08:03 10° S 18:11:46 72° E 18:12:36 50° NNE
ERS-2 2.3 18:11:59 19° N 18:14:26 69° WNW 18:18:02 10° SSW
Cosmos 1898 Rocket 3.4 18:10:22 10° SSW 18:15:37 74° ESE 18:18:37 26° NNE
Cosmos 1092 Rocket 3.9 18:09:30 10° S 18:15:42 89° E 18:21:54 10° N
Cosmos 1689 Rocket 2.9 18:17:18 44° SSW 18:17:18 44° SSW 18:19:21 10° SSW
USA 234 3.9 18:14:04 29° ENE 18:16:39 41° NNE 18:22:41 10° NW
Iridium 4 Rocket 3.5 18:11:17 10° N 18:16:55 79° E 18:22:04 10° S
Cosmos 1680 Rocket 3.8 18:12:18 10° NNW 18:17:31 69° WSW 18:22:41 10° S
ARGOS 3.0 18:16:20 10° SSE 18:21:41 78° ENE 18:27:05 10° NNW
Cosmos 2344 4.3 18:14:12 10° NW 18:23:22 74° NE 18:35:29 12° SE
H-2A R/B 2.1 18:18:25 10° S 18:23:25 74° WSW 18:28:35 10° NNW
Meteor 1-27 4.3 18:22:05 10° N 18:27:35 52° ENE 18:28:17 49° E
Lacrosse 5 3.6 18:23:23 10° WNW 18:27:45 30° SW 18:32:07 10° S
Cosmos 2098 Rocket 4.3 18:21:56 10° S 18:29:09 76° E 18:36:32 10° NNE
CZ-2C R/B 2.7 18:29:46 46° ENE 18:30:59 55° E 18:36:28 10° S
NOSS 2-1 (E) 3.7 18:31:42 10° SW 18:34:09 47° SW 18:34:09 47° SW
ISS -2.4 18:32:17 10° W 18:34:48 37° NW 18:34:48 37° NW
CSL-04 Debris 4.3 18:35:23 10° S 18:40:46 75° WSW 18:46:11 10° NNW
COSMOS 2406 3.1 18:36:31 10° NNW 18:42:21 82° ENE 18:44:00 49° SE
Cosmos 1937 Rocket 3.5 18:40:48 10° SSW 18:46:07 85° WNW 18:47:28 52° NNE
Cosmos 1833 Rocket 2.5 18:43:35 10° NNW 18:49:14 81° ENE 18:49:44 73° ESE
Helios 1A Rocket 4.2 18:45:41 10° S 18:49:36 41° W 18:53:33 10° NNW
Meteor 2-19 Rocket 4.4 18:45:04 10° S 18:51:14 85° W 18:57:27 10° N
USA 281 4.4 18:58:07 26° NNE 18:58:07 26° NNE 19:01:43 10° N
CZ-4C R/B 4.3 18:53:44 10° NW 18:57:59 19° N 18:59:07 18° NNE
Cosmos 2082 Rocket 2.8 18:52:28 10° NNW 18:56:34 43° N 18:56:34 43° N
Cosmos 1417 Rocket 4.4 18:57:02 10° N 19:03:17 88° WSW 19:06:54 27° S
Cosmos 1758 Rocket 4.4 19:01:28 10° SSW 19:05:47 48° WNW 19:05:48 48° WNW
Cosmos 1553 Rocket 4.2 19:00:51 10° NNW 19:07:16 73° W 19:13:34 10° S
USA 267 3.9 19:26:06 41° S 19:26:06 41° S 19:30:28 10° SW
Cosmos 2278 Rocket 2.9 19:19:24 10° SSW 19:23:28 48° SW 19:23:28 48° SW
USA 229 DEB 4.4 19:19:29 10° NW 19:26:38 57° WSW 19:29:23 38° S
USA 229 4.4 19:19:35 10° NW 19:26:44 57° WSW 19:29:24 39° S
S3M 4.3 19:24:42 10° NNW 19:29:52 60° NW 19:29:52 60° NW
ATLAS 5 CENTAUR R/B 4.5 19:33:07 10° NNW 19:33:43 11° NNW 19:33:43 11° NNW
ATLAS 2AS CENTAUR R/B 4.4 19:44:45 10° NW 19:50:17 23° N 19:50:17 23° N
USA 234 4.1 20:01:24 44° NW 20:01:24 44° NW 20:05:43 10° NW
